Tracking 18980 objects as of 18-Feb-2018
HD Live streaming from Space Station
objects crossing your sky now

NOAA 16 DEB

Track NOAA 16 DEB now!
10-day predictions


NORAD ID: 41540
Int'l Code: 2000-055NQ
Perigee: 851.2 km
Apogee: 910.1 km
Inclination: 98.9 °
Period: 102.4 minutes
Semi major axis: 7251 km
RCS: Unknown
Launch date: September 21, 2000
Source: United States (US)
Launch site: AIR FORCE WESTERN TEST RANGE (AFWTR)

Note: This is SATELLITE DEBRIS
aabbcc
Your satellite tracking list
Your tracking list is empty




NASA's NSSDC Master Catalog

Two Line Element Set (TLE):
1 41540U 00055NQ  18048.14679263 +.00000262 +00000-0 +18551-3 0  9996
2 41540 098.8881 116.2747 0040660 133.4764 226.9797 14.05874529094853
Source of the keplerian elements: AFSPC